{"data":{"norad_id":87764,"epoch":"2026-09-18T00:15:54.702720Z","epoch_age_seconds":233162,"freshness":"STALE","line1":"1 87764U          26261.01104980  .00003171  00000+0  48557-3 0  9995","line2":"2 87764  65.6688 110.6206 0364970 293.4727 219.3139 14.39090360659252","mean_motion":14.3909036,"eccentricity":0.036497,"inclination_deg":65.6688,"raan_deg":110.6206,"arg_perigee_deg":293.4727,"mean_anomaly_deg":219.3139,"bstar":0.00048557,"rev_number":65925,"period_min":100.06320937345,"perigee_km":500.9299554784,"apogee_km":1022.0810191992,"semimajor_km":7139.6424873388,"source":"CELESTRAK","updated_at":"2026-09-20T09:00:32.479397Z"}}